ICE4BE BIKF-ENBR

Flight info

Callsign ICE4BE
Flight time N/A
Altitude 39000
Route OSKUM3A OSKUM DCT 63N010W DCT GUNPA/N0460F390 DCT MODNI
Aircraft B38M/M-SDE1FGHILORVWXY/HB1

Departure

Time N/A
Airport Keflavik International Airport (BIKF)

Arrival

Time 2026-05-06 17:27
Airport Bergen Airport, Flesland (ENBR)
Time Latitude Longitude Altitude Speed Heading
2026-05-06 17:00 60.57212 1.88672 38024 ft 493 kts 118°
2026-05-06 17:01 60.54157 2.01161 38031 ft 493 kts 118°
2026-05-06 17:01 60.51087 2.13627 38019 ft 493 kts 119°
2026-05-06 17:02 60.48032 2.25980 38024 ft 493 kts 119°
2026-05-06 17:02 60.44944 2.38390 38024 ft 493 kts 119°
2026-05-06 17:02 60.43391 2.44602 37756 ft 494 kts 119°
2026-05-06 17:03 60.41819 2.50879 37149 ft 493 kts 120°
2026-05-06 17:03 60.40286 2.56974 36346 ft 494 kts 120°
2026-05-06 17:03 60.38707 2.63244 35456 ft 494 kts 120°
2026-05-06 17:03 60.37147 2.69413 34682 ft 492 kts 120°
2026-05-06 17:04 60.35594 2.75545 33922 ft 489 kts 120°
2026-05-06 17:04 60.34064 2.81562 33060 ft 487 kts 120°
2026-05-06 17:04 60.32517 2.87634 32205 ft 485 kts 121°
2026-05-06 17:04 60.30977 2.93658 31362 ft 482 kts 121°
2026-05-06 17:05 60.29444 2.99644 30552 ft 481 kts 121°
2026-05-06 17:05 60.27914 3.05600 29665 ft 479 kts 122°
2026-05-06 17:05 60.26383 3.11545 28686 ft 477 kts 122°
2026-05-06 17:05 60.24857 3.17456 27744 ft 475 kts 122°
2026-05-06 17:06 60.23331 3.23350 26827 ft 473 kts 122°
2026-05-06 17:06 60.21811 3.29204 25939 ft 472 kts 122°
2026-05-06 17:06 60.20291 3.35042 25077 ft 470 kts 122°
2026-05-06 17:06 60.18777 3.40844 24226 ft 468 kts 122°
2026-05-06 17:07 60.17264 3.46625 23348 ft 467 kts 122°
2026-05-06 17:07 60.15759 3.52367 22371 ft 465 kts 122°
2026-05-06 17:07 60.14253 3.58093 21429 ft 463 kts 122°
2026-05-06 17:07 60.12752 3.63783 20513 ft 460 kts 122°
2026-05-06 17:08 60.11258 3.69437 19588 ft 456 kts 121°
2026-05-06 17:08 60.09777 3.75025 18753 ft 451 kts 121°
2026-05-06 17:08 60.08309 3.80550 17870 ft 446 kts 121°
2026-05-06 17:08 60.06866 3.86008 16954 ft 441 kts 118°
2026-05-06 17:09 60.05908 3.91808 16056 ft 439 kts 99°
2026-05-06 17:09 60.05827 3.97825 15195 ft 432 kts 81°
2026-05-06 17:09 60.06617 4.03523 14363 ft 420 kts 62°
2026-05-06 17:09 60.08178 4.08331 13530 ft 406 kts 43°
2026-05-06 17:10 60.10307 4.11841 12666 ft 391 kts 29°
2026-05-06 17:10 60.12489 4.15024 11873 ft 385 kts 35°
2026-05-06 17:10 60.14558 4.18386 11067 ft 380 kts 37°
2026-05-06 17:10 60.16547 4.21804 10344 ft 373 kts 38°
2026-05-06 17:11 60.18442 4.25168 10178 ft 351 kts 39°
2026-05-06 17:11 60.20198 4.28328 10169 ft 328 kts 39°
2026-05-06 17:11 60.21838 4.31308 10151 ft 307 kts 39°
2026-05-06 17:11 60.23360 4.34093 10141 ft 291 kts 39°
2026-05-06 17:12 60.24850 4.36828 10087 ft 289 kts 39°
2026-05-06 17:12 60.26330 4.39555 10051 ft 288 kts 39°
2026-05-06 17:12 60.27810 4.42284 10042 ft 288 kts 39°
2026-05-06 17:12 60.29267 4.44975 10041 ft 288 kts 39°
2026-05-06 17:13 60.30745 4.47709 10043 ft 288 kts 39°
2026-05-06 17:13 60.32240 4.50478 10041 ft 288 kts 39°
2026-05-06 17:13 60.33714 4.53214 10035 ft 288 kts 39°
2026-05-06 17:13 60.35189 4.55954 10034 ft 288 kts 39°
2026-05-06 17:14 60.36580 4.58866 10017 ft 291 kts 53°
2026-05-06 17:14 60.37599 4.62428 9627 ft 295 kts 58°
2026-05-06 17:14 60.38619 4.66110 8772 ft 306 kts 59°
2026-05-06 17:14 60.39896 4.69535 7896 ft 310 kts 37°
2026-05-06 17:15 60.41830 4.71246 7251 ft 301 kts
2026-05-06 17:15 60.43760 4.70524 7143 ft 269 kts 333°
2026-05-06 17:15 60.45414 4.69128 7107 ft 248 kts 343°
2026-05-06 17:15 60.47076 4.68846 7111 ft 238 kts 355°
2026-05-06 17:16 60.48731 4.68775 7061 ft 237 kts 355°
2026-05-06 17:16 60.50384 4.68731 7040 ft 238 kts 356°
2026-05-06 17:16 60.52018 4.69047 6584 ft 243 kts 14°
2026-05-06 17:16 60.53611 4.70206 6486 ft 240 kts 16°
2026-05-06 17:17 60.55166 4.71339 6384 ft 241 kts 17°
2026-05-06 17:17 60.56736 4.72549 6242 ft 241 kts 24°
2026-05-06 17:17 60.58119 4.74573 5994 ft 244 kts 38°
2026-05-06 17:17 60.59437 4.76840 5289 ft 254 kts 38°
2026-05-06 17:18 60.60780 4.79152 4939 ft 247 kts 39°
2026-05-06 17:18 60.61850 4.81727 5051 ft 235 kts 61°
2026-05-06 17:18 60.62244 4.84821 4974 ft 226 kts 90°
2026-05-06 17:18 60.61930 4.87859 4947 ft 221 kts 117°
2026-05-06 17:19 60.61013 4.90349 4985 ft 211 kts 141°
2026-05-06 17:19 60.59937 4.92194 4870 ft 205 kts 141°
2026-05-06 17:19 60.58838 4.94172 4375 ft 216 kts 140°
2026-05-06 17:19 60.57711 4.96259 4036 ft 218 kts 140°
2026-05-06 17:20 60.56616 4.98296 3930 ft 208 kts 140°
2026-05-06 17:20 60.55587 5.00217 3939 ft 196 kts 140°
2026-05-06 17:20 60.54589 5.02086 3995 ft 196 kts 140°
2026-05-06 17:20 60.53583 5.03977 3709 ft 198 kts 139°
2026-05-06 17:21 60.52571 5.05891 3338 ft 200 kts 140°
2026-05-06 17:21 60.51551 5.07823 3034 ft 198 kts 140°
2026-05-06 17:21 60.50571 5.09678 2951 ft 187 kts 140°
2026-05-06 17:21 60.49666 5.11393 2932 ft 174 kts 140°
2026-05-06 17:22 60.48788 5.13054 2952 ft 172 kts 140°
2026-05-06 17:22 60.47902 5.14688 2973 ft 171 kts 146°
2026-05-06 17:22 60.46868 5.15796 3002 ft 167 kts 165°
2026-05-06 17:22 60.45744 5.16318 3008 ft 166 kts 174°
2026-05-06 17:23 60.44639 5.16658 3001 ft 150 kts 174°
2026-05-06 17:23 60.43668 5.16973 3061 ft 139 kts 175°
2026-05-06 17:23 60.42718 5.17288 2904 ft 138 kts 175°
2026-05-06 17:23 60.41786 5.17600 2664 ft 135 kts 174°
2026-05-06 17:24 60.40859 5.17913 2451 ft 135 kts 175°
2026-05-06 17:24 60.39927 5.18217 2245 ft 137 kts 174°
2026-05-06 17:24 60.38977 5.18544 2010 ft 139 kts 173°
2026-05-06 17:24 60.38027 5.18871 1809 ft 138 kts 174°
2026-05-06 17:25 60.37079 5.19191 1605 ft 138 kts 174°
2026-05-06 17:25 60.36132 5.19512 1410 ft 138 kts 175°
2026-05-06 17:25 60.35179 5.19831 1160 ft 141 kts 175°
2026-05-06 17:25 60.34220 5.20173 962 ft 140 kts 172°
2026-05-06 17:26 60.33275 5.20510 751 ft 137 kts 172°
2026-05-06 17:26 60.32352 5.20820 614 ft 133 kts 171°
2026-05-06 17:26 60.31445 5.21122 414 ft 131 kts 171°
2026-05-06 17:26 60.30554 5.21417 243 ft 130 kts 170°
2026-05-06 17:27 60.29803 5.21670 179 ft 115 kts 171°
2026-05-06 17:27 60.29214 5.21866 178 ft 65 kts 170°
2026-05-06 17:27 60.28924 5.21975 177 ft 15 kts 138°
2026-05-06 17:27 60.28918 5.22168 176 ft 5 kts 80°
2026-05-06 17:28 60.28919 5.22169 176 ft 0 kts 80°
2026-05-06 17:30 60.28919 5.22173 176 ft 2 kts 81°
2026-05-06 17:30 60.28919 5.22176 176 ft 0 kts 81°
2026-05-06 17:30 60.28920 5.22183 176 ft 2 kts 81°
2026-05-06 17:30 60.28921 5.22200 176 ft 0 kts 81°
2026-05-06 17:31 60.28923 5.22224 176 ft 5 kts 77°
2026-05-06 17:31 60.28992 5.22256 176 ft 15 kts 352°
2026-05-06 17:31 60.29078 5.22268 176 ft 8 kts 75°
2026-05-06 17:31 60.29037 5.22381 176 ft 15 kts 135°
2026-05-06 17:32 60.28978 5.22550 176 ft 6 kts 133°
2026-05-06 17:32 60.28965 5.22578 176 ft 0 kts 132°